Miramar MCAS, CA

8:58 PM PST on February 24, 2018 (GMT -0800)
Miramar Marine Corps Air Station-Mitscher

Weather History for KNKX - December, 2012

Change the Weather History Date:

Sunday, December 30, 2012

  Actual Average Record
Temperature  
Mean Temperature 47 °F -  
Max Temperature 55 °F 64 °F 82 °F (2017)
Min Temperature 39 °F 43 °F 39 °F (2006)
Degree Days  
Heating Degree Days 18    
Moisture  
Dew Point 42 °F    
Average Humidity 82    
Maximum Humidity 93    
Minimum Humidity 59    
Precipitation  
Precipitation 0.12 in - - ()
Sea Level Pressure  
Sea Level Pressure 29.97 in    
Wind  
Wind Speed 4 mph (ENE)    
Max Wind Speed 12 mph    
Max Gust Speed -    
Visibility 9 miles    
Events Rain    
Averages and records for this station are not official NWS values.
T = Trace of Precipitation, MM = Missing Value Source: NWS Daily Summary

Daily Weather History Graph

Daily Weather History Graph

Search for Another Location

Airport or City:

Trip Planner

Search our weather history database for the weather conditions in past years. The results will help you decide how hot, cold, wet, or windy it might be!

Date:

Astronomy

Dec. 30, 2012 Rise Set
Actual Time 6:50 AM PST 4:52 PM PST
Civil Twilight 6:23 AM PST 5:19 PM PST
Nautical Twilight 5:52 AM PST 5:50 PM PST
Astronomical Twilight 5:22 AM PST 6:20 PM PST
Moon 7:19 PM PST (12/30) 8:09 AM PST (12/30)
Length of Visible Light 10h 55m
Length of Day
10h 01m
Waning Gibbous, 95% of the Moon is Illuminated
Dec 30
Waning Gibbous
Jan 4
Last Quarter
Jan 11
New
Jan 18
First Quarter
Jan 26
Full

Hourly Weather History & Observations

Time (PST) Temp. Windchill Dew Point Humidity Pressure Visibility Wind Dir Wind Speed Gust Speed Precip Events Conditions
12:55 AM 44.1 °F 40.8 °F 42.1 °F 93% 29.98 in 8.0 mi NE 5.8 mph - 0.01 in   Scattered Clouds
1:55 AM 44.1 °F 40.8 °F 41.0 °F 89% 29.98 in 6.0 mi ENE 5.8 mph - N/A   Partly Cloudy
2:55 AM 45.0 °F 42.6 °F 42.1 °F 90% 29.97 in 7.0 mi East 4.6 mph - N/A   Scattered Clouds
3:55 AM 46.0 °F 44.8 °F 44.1 °F 93% 29.97 in 10.0 mi East 3.5 mph - N/A   Scattered Clouds
4:55 AM 46.0 °F 43.1 °F 43.0 °F 89% 29.96 in 10.0 mi ENE 5.8 mph - N/A   Scattered Clouds
5:55 AM 46.0 °F 44.8 °F 42.1 °F 86% 29.97 in 6.0 mi East 3.5 mph - 0.02 in   Mostly Cloudy
6:55 AM 45.0 °F 43.5 °F 42.1 °F 90% 29.97 in 10.0 mi East 3.5 mph - 0.00 in   Mostly Cloudy
7:55 AM 45.0 °F 42.6 °F 41.0 °F 86% 29.98 in 10.0 mi East 4.6 mph - N/A   Scattered Clouds
8:55 AM 51.1 °F - 45.0 °F 80% 30.00 in 10.0 mi East 3.5 mph - 0.01 in   Scattered Clouds
9:55 AM 53.1 °F - 45.0 °F 74% 30.01 in 10.0 mi Calm Calm - N/A   Mostly Cloudy
10:55 AM 53.1 °F - 43.0 °F 69% 29.99 in 10.0 mi Calm Calm - N/A   Mostly Cloudy
11:55 AM 51.1 °F - 44.1 °F 77% 29.96 in 7.0 mi NNW 3.5 mph - 0.03 in Rain Light Rain
12:55 PM 53.1 °F - 42.1 °F 66% 29.93 in 7.0 mi Calm Calm - 0.00 in   Mostly Cloudy
1:55 PM 55.0 °F - 43.0 °F 64% 29.91 in 10.0 mi West 8.1 mph - N/A   Mostly Cloudy
2:55 PM 55.0 °F - 41.0 °F 59% 29.91 in 10.0 mi West 11.5 mph - N/A   Mostly Cloudy
3:55 PM 53.1 °F - 42.1 °F 66% 29.91 in 10.0 mi WNW 8.1 mph - N/A   Mostly Cloudy
4:55 PM 46.0 °F - 42.1 °F 86% 29.92 in 5.0 mi Calm Calm - 0.05 in Rain Light Rain
5:55 PM 46.0 °F 44.8 °F 42.1 °F 86% 29.94 in 10.0 mi East 3.5 mph - 0.00 in Rain Light Rain
6:55 PM 46.9 °F - 43.0 °F 86% 29.97 in 10.0 mi West 3.5 mph - 0.00 in Rain Light Rain
7:55 PM 45.0 °F 42.6 °F 41.0 °F 86% 29.99 in 10.0 mi East 4.6 mph - 0.00 in Rain Light Rain
8:55 PM 42.1 °F 40.2 °F 39.0 °F 89% 30.01 in 10.0 mi ENE 3.5 mph - 0.00 in Rain Light Rain
9:55 PM 39.9 °F - 37.0 °F 89% 30.03 in 10.0 mi Calm Calm - 0.00 in   Partly Cloudy
10:55 PM 39.9 °F 37.8 °F 37.0 °F 89% 30.05 in 10.0 mi East 3.5 mph - N/A   Partly Cloudy
11:55 PM 39.9 °F 35.8 °F 36.0 °F 86% 30.06 in 10.0 mi ENE 5.8 mph - N/A   Partly Cloudy